Wind_Speed
11 9 5 2 0 4 2 2 2 1 4 3 8 3 2 3 1 2 9 17 26 29 27 25 25 23 23 22 22 22 22 22 20 17 15 13 14 14 14 14 13 11 12 12 12 12 12 13 14
12 8 1 1 2 2 1 3 2 2 2 7 9 5 2 3 3 8 18 20 30 29 28 25 24 24 23 24 22 22 21 22 20 16 15 14 13 12 12 12 12 11 11 11 11 11 12 12 13
10 2 2 2 2 2 2 2 2 2 3 5 4 5 3 2 4 18 14 28 28 27 26 25 24 22 20 21 23 23 20 19 18 16 14 12 11 11 10 9 9 10 9 10 9 10 11 11 10
4 3 1 2 5 1 1 3 2 5 3 2 5 6 5 3 7 10 23 29 28 25 24 26 25 22 19 19 20 20 20 17 15 14 13 12 11 10 9 8 8 8 8 8 7 9 10 9 9
1 2 1 2 2 2 3 6 6 4 1 2 1 3 4 4 8 19 25 28 27 25 23 23 24 22 20 19 19 19 18 17 16 15 14 12 11 10 8 8 8 8 8 7 7 9 8 6 7
2 2 2 3 2 1 3 5 5 2 2 3 5 6 3 5 16 20 23 26 24 25 23 22 22 22 21 20 19 19 18 17 17 15 13 12 11 9 9 9 9 9 8 8 8 8 9 9 9
1 1 0 0 1 1 3 5 4 4 4 2 9 4 3 7 15 20 22 22 23 22 22 21 21 20 20 20 20 19 18 17 16 15 14 13 11 11 10 10 9 9 9 9 9 10 9 10 11
1 1 2 1 2 2 4 7 2 6 5 6 5 4 6 13 19 20 21 21 21 21 21 21 20 20 19 19 19 19 19 18 16 16 14 14 12 10 10 9 8 9 9 8 7 7 7 8 9
1 2 3 1 5 2 6 7 4 3 7 4 5 4 8 25 23 22 21 21 21 21 22 21 21 20 20 18 19 19 19 18 17 16 14 12 10 10 8 8 10 9 10 8 8 7 7 7 7
1 1 3 2 2 3 4 5 4 4 6 4 5 8 22 27 26 26 25 24 25 24 23 22 22 21 20 19 18 19 18 17 17 17 13 12 11 10 10 8 10 9 10 9 8 7 8 7 7
3 3 4 3 6 3 5 5 3 3 7 10 14 16 22 26 23 23 24 25 27 25 23 24 22 21 21 20 18 18 18 16 16 16 15 14 12 9 10 9 11 11 10 10 8 6 7 8 7
3 5 3 6 2 4 6 5 5 10 3 3 11 18 22 21 22 25 24 24 23 23 23 22 22 22 21 19 19 18 17 16 14 16 16 12 11 9 10 8 11 12 10 10 11 9 7 7 7
2 6 9 8 8 2 8 6 6 7 4 3 14 17 20 19 22 21 21 21 21 23 23 22 22 21 21 20 18 18 17 16 14 12 12 12 11 10 13 11 10 10 9 7 10 11 8 8 8
5 10 13 7 6 4 6 4 4 4 7 10 15 17 18 20 22 19 20 20 22 22 22 22 23 21 20 20 19 18 17 16 14 12 12 13 11 11 11 9 9 10 12 11 8 11 9 9 10
6 7 7 3 5 3 3 5 3 1 7 12 13 14 16 17 21 24 25 25 24 22 21 23 23 23 22 22 20 18 17 15 14 14 14 14 13 12 12 9 8 9 10 12 10 9 10 8 10
3 2 5 2 7 3 4 10 3 3 8 10 11 13 15 18 24 24 22 22 21 21 22 25 19 22 23 22 20 18 16 16 14 13 13 15 15 15 13 12 11 9 9 6 7 7 7 8 9
6 4 5 8 6 2 4 5 4 4 8 8 9 11 12 14 19 24 25 25 22 23 20 21 21 23 23 22 20 19 16 18 16 14 14 16 18 18 16 12 11 11 8 7 6 6 6 7 8
3 5 6 6 3 5 3 8 4 2 6 6 7 10 12 14 19 23 24 23 23 23 23 21 21 21 22 21 19 18 17 17 16 17 18 17 17 17 17 13 12 10 8 7 7 6 6 7 7
3 5 9 6 3 0 2 5 3 0 4 5 7 9 12 15 16 20 22 24 22 22 22 26 24 26 24 21 19 20 21 20 18 19 20 19 17 15 17 13 12 10 8 7 7 7 7 7 6
4 8 7 7 3 2 3 7 3 3 2 4 7 11 12 12 10 14 17 23 23 24 26 26 30 28 27 24 25 18 16 18 17 16 19 21 17 16 16 16 12 11 8 9 8 8 6 6 6
5 6 5 5 3 4 1 5 1 1 4 5 4 6 6 8 8 7 11 14 20 24 23 24 25 25 29 28 20 17 16 16 14 14 17 19 19 17 17 17 16 13 12 9 9 9 10 7 3
4 9 8 6 1 2 3 4 1 2 8 8 8 9 9 9 6 5 9 13 16 19 17 20 21 29 26 28 20 19 22 22 19 19 17 18 19 18 18 17 18 16 12 10 10 8 9 9 7
2 1 1 1 2 3 3 3 1 2 6 9 7 10 11 11 10 9 8 14 13 14 14 17 18 25 28 26 23 22 22 22 20 20 19 20 17 20 18 18 18 19 15 13 11 10 10 10 9
3 1 1 2 1 1 2 2 1 3 3 4 4 9 11 12 11 8 4 5 8 7 11 13 16 20 25 24 22 18 16 18 21 22 19 17 15 16 19 18 18 19 18 16 13 12 11 10 10
4 3 2 3 1 2 0 3 3 2 5 1 5 7 9 10 12 10 4 4 7 8 10 11 13 18 26 30 30 31 14 15 21 26 21 20 19 21 19 21 19 18 20 19 16 15 12 13 12
6 6 4 2 2 3 1 2 2 1 3 1 6 7 6 6 9 10 6 2 5 6 8 11 13 13 18 23 33 32 15 16 18 20 26 17 13 13 15 18 21 21 20 19 18 15 14 14 13
5 4 2 4 1 3 2 4 3 1 4 3 3 5 1 6 9 9 5 4 6 8 8 9 9 8 10 15 16 20 19 22 23 18 20 15 14 13 15 17 18 20 19 20 18 18 17 15 15
3 9 3 1 2 3 1 4 5 3 7 7 6 5 5 6 5 2 1 4 7 7 8 8 7 5 3 6 18 19 19 16 9 12 13 13 11 13 14 15 16 18 20 21 19 19 19 18 19
3 3 5 2 2 3 3 3 3 4 5 9 6 5 6 6 5 4 4 4 6 6 7 8 8 7 8 11 15 19 20 12 8 8 7 8 11 12 14 17 17 18 17 19 20 21 21 18 17
2 3 1 2 3 1 2 4 2 4 2 7 5 5 5 7 6 6 7 7 6 6 5 5 5 5 9 11 13 16 15 11 12 13 12 10 14 15 15 17 17 19 20 20 19 19 17 17 17
Wind_Direction
138 133 133 226 94 62 330 14 317 345 159 170 161 192 178 68 226 45 142 153 154 155 156 159 160 157 155 156 161 167 171 169 164 158 154 148 139 134 133 131 132 134 128 122 122 116 113 117 121
152 134 117 325 70 107 256 264 326 328 96 146 147 127 135 98 77 122 141 153 154 155 157 160 165 165 163 160 159 161 165 170 170 166 164 158 149 143 138 133 130 128 126 128 129 128 128 126 124
157 201 269 84 57 71 69 232 102 112 117 157 138 57 52 69 85 146 153 151 155 156 159 163 164 164 166 166 165 163 163 169 170 172 171 167 157 153 149 149 145 137 138 136 138 138 133 132 138
183 181 132 67 82 118 264 223 187 149 86 44 107 74 90 308 156 151 150 154 157 158 162 165 168 164 164 169 171 171 174 174 173 176 180 179 176 167 165 170 163 156 159 156 157 149 144 143 146
259 260 32 72 67 165 211 190 169 182 147 106 115 104 79 48 131 142 152 159 161 161 164 166 169 167 167 170 174 177 181 179 181 183 191 195 200 198 191 192 186 183 179 180 190 185 182 202 208
226 260 51 56 101 95 190 194 176 170 123 131 100 118 84 118 138 150 157 163 165 163 167 169 171 170 172 175 175 180 185 185 187 189 197 203 205 201 197 195 203 205 213 215 218 223 221 228 212
308 324 200 115 16 231 204 195 214 173 161 126 133 103 102 155 154 154 160 165 167 166 169 172 174 174 176 180 181 186 189 191 193 194 202 209 211 211 214 210 215 224 227 240 233 233 233 229 215
293 321 285 118 211 268 180 178 152 168 169 138 162 147 170 173 158 153 159 165 171 172 175 176 176 177 181 188 187 191 194 196 199 207 209 215 216 217 226 233 239 238 249 243 242 242 233 230 221
142 321 303 130 190 244 170 198 122 110 135 164 144 139 137 152 154 155 162 168 174 182 183 182 181 183 185 189 192 196 200 203 207 215 218 223 220 228 232 230 246 249 251 239 236 239 228 232 222
248 296 258 248 226 248 183 204 162 165 140 165 151 102 142 152 161 166 174 178 182 185 189 190 187 187 190 193 194 200 205 210 214 220 218 225 227 232 235 235 244 249 248 241 237 249 229 220 217
171 247 317 209 229 227 166 221 198 196 199 197 194 157 160 162 171 180 185 187 188 188 189 193 195 193 192 195 199 204 210 212 219 219 225 224 230 235 240 233 244 258 243 240 240 230 213 213 213
238 269 234 313 291 160 165 168 230 230 301 337 185 164 165 173 180 186 188 189 190 194 195 197 199 198 200 201 203 206 209 212 214 224 228 228 231 235 241 237 236 245 254 242 230 225 212 216 219
322 336 316 310 276 230 140 194 210 239 238 89 152 162 174 184 190 192 191 193 192 197 200 201 200 204 202 207 207 208 213 217 220 224 228 232 233 233 245 245 249 254 253 257 239 230 224 232 231
322 317 306 303 291 196 182 199 212 90 135 134 161 174 182 191 189 192 198 195 199 202 203 202 204 205 210 211 214 213 216 219 221 225 228 232 232 238 247 258 252 253 252 262 270 239 234 239 240
325 323 320 326 302 310 166 256 239 54 162 152 175 179 189 196 198 203 202 201 202 204 205 206 205 205 213 218 218 220 222 222 221 225 231 232 235 241 247 255 267 272 266 260 259 247 239 248 244
24 21 331 357 332 26 238 259 32 236 183 175 181 187 197 202 204 212 213 211 206 209 211 210 206 210 215 220 219 221 226 223 224 225 234 234 237 241 243 251 266 276 274 257 249 232 229 236 238
34 315 341 327 343 155 181 307 323 238 209 198 193 203 208 211 215 215 216 215 212 209 208 210 213 214 214 222 227 228 230 231 231 228 233 242 242 241 241 245 259 267 276 267 241 230 232 244 238
324 324 320 291 358 335 250 265 285 244 222 213 219 225 226 221 224 220 223 222 218 216 211 217 213 220 219 218 226 231 237 239 235 232 237 243 244 235 234 237 247 255 263 251 230 226 238 247 250
247 288 307 293 300 318 295 252 12 305 250 250 245 257 259 250 243 232 227 226 222 218 215 218 217 217 213 212 220 231 233 236 240 238 237 240 241 232 230 228 233 239 246 246 237 242 250 255 243
276 296 286 283 1 296 227 254 343 6 287 285 299 288 284 281 261 241 232 230 227 222 212 213 216 212 215 210 213 219 235 239 238 242 243 236 237 238 227 230 227 234 237 253 255 231 239 241 229
246 238 261 266 24 66 278 262 95 350 281 293 275 309 316 300 306 254 226 227 225 227 220 219 212 211 215 213 211 216 232 245 244 238 235 237 240 237 236 235 229 237 239 250 260 246 231 246 234
256 215 244 268 242 312 317 299 327 248 291 296 302 317 339 343 343 270 223 207 218 226 220 220 215 219 210 213 211 221 225 217 237 237 237 239 240 241 243 239 235 238 232 244 261 252 240 250 252
295 181 256 311 167 203 31 269 105 255 255 264 311 336 338 336 347 322 239 225 217 214 216 216 213 210 218 213 212 241 243 242 237 246 248 245 244 244 245 241 237 238 232 238 250 243 248 243 252
114 180 83 144 194 188 1 298 26 213 245 254 11 347 340 342 355 19 3 199 189 202 207 205 202 202 210 211 203 222 244 254 250 248 251 248 240 239 240 240 240 239 230 236 240 243 246 239 242
190 230 264 196 10 2 61 240 297 238 229 273 319 322 319 343 339 354 12 185 176 167 175 183 186 197 210 206 210 213 240 260 259 257 246 251 252 246 239 238 239 232 233 239 239 240 243 238 243
187 235 232 205 265 354 182 271 15 164 239 356 284 284 276 332 339 329 335 239 196 176 183 188 192 201 201 208 208 206 231 256 268 261 256 249 245 257 246 247 245 242 243 238 237 241 245 243 249
146 174 69 114 112 254 339 262 238 172 216 189 94 111 100 338 328 322 316 216 193 186 197 207 209 229 238 241 204 189 231 263 253 263 257 255 259 264 259 254 246 247 245 241 240 245 247 252 259
255 136 170 134 218 274 208 283 263 46 102 143 107 43 349 338 340 344 113 179 198 193 191 202 208 237 207 154 197 220 234 242 242 255 261 259 270 276 254 250 241 244 244 243 241 246 254 252 258
146 129 62 99 321 261 275 271 200 236 120 124 99 33 4 28 55 71 103 140 176 200 212 225 233 214 179 184 203 212 235 247 242 247 261 268 279 279 254 247 242 241 237 240 231 237 247 247 250
52 95 127 264 182 107 322 278 196 337 104 112 66 30 53 50 67 93 90 107 143 181 204 239 249 228 219 209 212 221 234 242 229 244 275 283 287 276 257 242 237 238 236 237 229 223 236 239 246
Height
787 788 789 788 799 798 822 806 790 793 791 783 781 789 793 794 801 813 804 808 812 819 823 828 830 832 834 836 839 841 843 846 848 850 851 853 854 854 854 855 856 858 859 860 861 861 862 863 864
788 789 791 789 804 815 819 801 801 790 782 781 780 784 790 799 797 803 806 809 814 819 823 828 830 832 835 837 840 843 845 847 850 851 853 854 855 856 857 858 859 861 861 862 862 862 864 865 865
789 790 791 795 807 814 810 796 793 787 782 781 785 783 790 801 801 803 805 809 816 820 823 827 830 832 836 839 841 844 846 848 850 852 854 855 856 858 859 860 861 861 862 863 864 865 866 866 867
789 789 790 800 809 800 797 789 786 787 783 782 783 796 796 800 801 804 807 812 817 821 825 827 829 832 836 840 842 844 846 848 850 853 854 856 857 858 859 860 862 863 863 864 865 867 867 867 867
787 785 795 800 802 793 786 780 782 788 787 787 786 799 800 802 803 805 809 814 817 822 826 829 831 833 837 840 843 845 847 848 850 852 854 856 857 858 859 860 862 863 864 865 866 868 869 869 869
788 788 803 808 800 790 783 777 782 786 787 788 792 795 802 804 805 808 812 816 819 822 826 829 832 835 837 840 842 845 847 848 849 851 853 855 856 859 859 860 862 863 863 864 866 868 869 869 869
790 792 800 801 802 795 786 777 785 787 789 790 787 801 805 806 807 809 814 818 821 824 826 829 833 836 838 839 842 844 847 848 849 851 852 854 856 857 858 859 861 861 862 863 864 865 867 867 868
784 790 797 798 804 798 779 780 778 783 791 785 785 799 804 802 807 811 815 819 823 824 827 829 832 836 838 840 842 844 846 847 849 850 852 853 854 856 857 857 858 859 860 861 862 863 864 866 867
782 797 802 797 798 786 776 781 779 779 785 785 785 788 790 799 805 811 816 819 821 824 826 828 831 834 837 840 842 844 845 847 849 850 851 854 854 856 856 856 856 858 859 860 860 862 862 863 864
787 803 793 781 777 780 778 780 780 784 788 790 788 790 793 799 803 806 810 814 817 820 823 827 829 832 835 839 841 843 845 847 848 848 851 851 852 853 855 855 853 855 857 858 859 860 860 862 863
790 797 782 774 771 770 777 780 777 784 790 780 781 787 793 797 802 805 808 810 812 816 820 824 827 830 833 836 839 841 843 845 846 847 848 850 850 852 852 854 853 854 855 857 858 861 860 861 862
794 779 778 773 770 772 777 773 778 778 776 772 775 784 791 795 797 800 804 809 812 815 818 822 825 828 831 834 836 839 841 842 844 845 846 847 849 849 850 852 852 853 854 855 857 858 859 859 860
785 780 773 770 768 770 771 775 775 775 771 772 779 786 790 793 796 800 803 808 812 814 817 821 823 826 829 832 835 836 839 841 842 844 845 845 847 848 847 849 850 850 851 852 853 855 857 857 858
781 778 775 770 766 768 774 776 775 775 772 776 780 783 787 790 795 800 804 807 809 813 815 819 821 824 829 830 833 835 836 838 840 841 842 843 845 845 846 847 847 847 849 850 851 853 854 856 857
781 787 777 773 770 772 770 782 783 774 772 776 779 783 785 790 794 794 797 801 805 809 813 815 818 821 826 828 831 834 835 836 838 839 840 841 842 844 845 846 845 845 846 848 849 850 851 853 854
791 791 801 777 773 773 775 787 783 776 774 776 778 782 784 786 788 792 796 799 804 808 809 812 817 820 823 826 828 832 833 835 835 838 839 840 840 841 842 843 844 844 844 846 847 849 850 851 852
800 813 806 790 773 777 780 788 782 776 775 777 778 780 782 784 787 788 790 795 800 803 806 809 813 817 820 825 828 830 831 832 833 835 837 838 839 839 840 842 842 843 843 843 845 847 848 849 849
817 813 805 806 783 780 785 786 779 779 779 779 779 778 778 782 780 785 789 793 798 801 803 805 810 815 818 821 825 827 829 830 831 831 832 834 835 837 838 840 841 841 842 843 844 845 846 847 848
805 809 810 791 784 787 793 786 784 782 782 781 779 777 776 777 779 783 787 790 794 797 801 802 806 809 814 817 823 825 825 827 828 829 830 831 832 834 835 838 839 840 841 842 842 844 845 845 845
802 806 799 789 785 787 795 788 789 785 783 781 781 777 775 773 778 781 785 787 790 793 795 798 799 804 809 812 816 821 823 824 825 826 827 829 830 831 833 835 837 838 839 839 840 842 842 843 843
798 802 797 797 790 792 796 793 794 785 781 779 776 776 774 774 775 776 779 782 786 788 793 796 798 801 803 807 814 817 819 821 822 823 824 825 827 829 830 832 834 835 837 838 838 839 839 840 841
799 785 790 792 798 809 798 810 799 791 786 779 774 772 773 770 771 772 774 776 780 783 787 791 792 796 799 803 810 814 813 813 817 819 822 824 825 826 828 829 831 833 835 835 836 836 837 837 838
787 783 788 791 798 802 804 810 791 798 790 779 776 776 771 769 769 769 770 772 775 779 782 785 788 791 794 797 802 809 812 812 813 818 819 820 821 823 825 826 828 829 831 832 832 833 834 835 835
780 785 792 797 795 809 812 815 789 789 785 779 776 776 772 768 767 771 770 772 774 776 780 784 786 787 792 795 797 807 809 810 811 812 816 817 818 820 821 822 823 824 827 827 828 830 831 832 832
783 789 811 815 812 816 810 813 786 779 777 777 780 778 772 770 767 766 771 773 776 777 778 782 785 784 785 786 790 795 801 805 809 809 812 812 814 816 818 817 818 819 821 821 824 825 828 829 829
784 783 806 834 825 811 807 804 779 777 775 779 778 776 774 772 769 768 769 771 774 776 778 781 782 784 786 787 785 788 796 802 806 806 809 809 809 811 813 813 816 816 817 817 819 822 825 826 826
791 792 788 807 824 816 807 790 773 781 781 780 778 775 774 773 771 768 768 771 773 775 777 780 781 784 787 786 786 791 795 800 803 802 806 803 805 807 808 809 811 812 815 814 817 821 823 825 825
772 780 797 799 825 829 810 808 790 780 782 780 780 779 776 773 771 769 768 771 775 776 779 779 782 784 786 788 791 796 797 799 797 801 801 801 802 803 804 804 806 809 810 812 815 818 820 821 821
782 786 798 795 807 813 820 802 775 778 778 780 782 778 774 772 771 770 770 773 775 777 778 780 782 786 787 789 794 796 797 797 797 799 799 799 798 800 801 801 802 804 806 807 810 813 815 816 816
776 787 786 798 813 816 814 799 772 779 781 779 780 777 774 773 773 774 772 773 776 777 780 781 782 783 784 788 790 792 794 794 795 795 793 793 793 795 795 797 798 800 802 802 803 805 808 809 811